Tracking 30415 objects as of 15-May-2025
HD Live streaming from Space Station
objects crossing your sky now

PICOSAT 6

Track PICOSAT 6 now!
10-day predictions
PICOSAT 6 is classified as:


NORAD ID: 26094
Int'l Code: 2000-004M
Perigee: 722.4 km
Apogee: 766.9 km
Inclination: 100.2 °
Period: 99.6 minutes
Semi major axis: 7115 km
RCS: 0.0137 m2 (small)
Launch date: January 27, 2000
Source: United States (US)
Launch site: AIR FORCE WESTERN TEST RANGE (AFWTR)
Your satellite tracking list
Your tracking list is empty




NASA's NSSDC Master Catalog

Two Line Element Set (TLE):
1 26094U 00004M   25134.53468881  .00000845  00000-0  25114-3 0  9996
2 26094 100.1861  65.6625 0031238 247.8706 111.9163 14.46379745327588
Source of the keplerian elements: AFSPC